Simultaneous Nadir Overpasses (SNOs) Predictions

Prediction of SNOs between GOES-15 and FY3D Satellite Orbit:

Table of predicted SNOs for the next 14.0 days since TLE Epoch: 8/28/2021
Index Date Time (GOES-15) GOES-15 Lat,Lon FY3D Lat,Lon Distance(km) Time Diff (sec)
1 08/29/2021 22:17:39 -0.45,-128.23 -0.59,-128.99 85.57 80
2 08/30/2021 21:56:01 -0.44,-128.23 0.41,-124.39 437.31 80
3 09/01/2021 10:17:29 0.44,-128.28 0.71,-129.57 146.72 80
4 09/02/2021 10:01:10 0.43,-128.28 -0.30,-124.98 375.84 80
5 09/03/2021 22:20:06 -0.43,-128.20 -0.86,-130.19 225.79 80
6 09/04/2021 22:03:47 -0.43,-128.19 0.15,-125.59 296.44 80
7 09/06/2021 10:22:35 0.42,-128.24 0.97,-130.77 288.73 80
8 09/07/2021 10:06:17 0.42,-128.23 -0.03,-126.18 233.49 80
9 09/08/2021 22:25:12 -0.41,-128.15 -1.12,-131.39 368.58 80
10 09/09/2021 22:08:54 -0.41,-128.14 -0.12,-126.79 153.26 80
